weather.gov     
National Weather Service

Terminal Aerodrome Forecast
NWS Homepage
This page is being discontinued on March 12, 2014.
The same data is available at this site. Please update your bookmarks.
Thank you, and we apologize for the inconvenience.
Please send an email to SR-SRH.Webmaster@noaa.gov with any concerns.


Current Version
Previous Version:    01  02  03  04  05  06  07  08  09  10  11  12  13  14  
[Printable]
006
FTUS41 KGYX 021120
TAFPWM
TAF
KPWM 021120Z 0212/0312 03008KT P6SM VCSH BKN015 OVC025
     FM021400 02011KT P6SM OVC025
     FM021600 02010KT P6SM BKN100=


006
FTUS41 KGYX 021120
TAFPWM
TAF
KPWM 021120Z 0212/0312 03008KT P6SM VCSH BKN015 OVC025
     FM021400 02011KT P6SM OVC025
     FM021600 02010KT P6SM BKN100=




U.S. Dept. of Commerce
NOAA National Weather Service
1325 East West Highway
Silver Spring, MD 20910
E-mail: w-nws.webmaster@noaa.gov
Page last modified: May 16, 2007
NATIONAL WEATHER SERVICE: for Safety, for Work, for Fun - FOR LIFE